Volver al catálogo

POEM

ActivoCienciaVLEO
NORAD 52939·PAYLOAD·🇮🇳 India

Lanzado Jun 30, 2022 desde Satish Dhawan Space Centre

Loading…

Próximos Pases (próximas 24 horas)

TLE

EnvejeciendoSource: Space-Track

Época: Sep 13, 2026, 01:41 UTC

1 52939U 22072E   26256.07072241  .00006327  00000-0  20718-3 0  9994
2 52939   9.9513 122.1105 0022054  63.4383 296.8091 15.24953690232948

Sigue POEM en tiempo real con AllMySat

Download on the App Store